CAPE
nan nan nan nan nan nan nan nan nan nan nan nan nan nan nan nan nan nan nan nan nan nan nan nan nan nan nan nan nan nan nan nan nan nan nan nan nan nan nan nan nan nan nan nan nan nan nan nan nan 0 0 2 6 6 12 20 20 26 33 33 33 32 31 26 26 25 27 27 29 29 37 39 42 42 42 39 33 33 32 30 30 30 31 35 35 41
nan nan nan nan nan nan nan nan nan nan nan nan nan nan nan nan nan nan nan nan nan nan nan nan nan nan nan nan nan nan nan nan nan nan nan nan nan nan nan nan nan nan nan 0 0 0 0 0 0 0 1 1 3 3 5 11 11 19 24 29 29 33 37 34 34 33 29 22 21 21 19 23 29 29 40 48 44 44 37 35 35 37 42 47 47 51
nan nan nan nan nan nan nan nan nan nan nan nan nan nan nan nan nan nan nan nan nan nan nan nan nan nan nan nan nan nan nan nan nan nan nan nan nan nan nan nan nan nan nan nan nan nan nan 0 0 0 1 2 2 2 3 6 6 9 13 17 17 25 28 33 33 33 32 29 24 24 18 17 22 22 43 52 53 53 45 43 43 48 51 57 57 64
nan nan nan nan nan nan nan nan nan nan nan nan nan nan nan nan nan nan nan nan nan nan nan nan nan nan nan nan nan nan nan nan nan nan nan nan nan nan nan nan nan nan nan nan nan nan nan nan nan nan 0 0 0 0 1 3 3 3 6 9 9 15 19 21 21 26 28 30 30 30 25 26 36 36 52 61 56 56 48 47 47 50 59 65 65 74
nan nan nan nan nan nan nan nan nan nan nan nan nan nan nan nan nan nan nan nan nan nan nan nan nan nan nan nan nan nan nan nan nan nan nan nan nan nan nan nan nan nan nan nan nan nan nan nan nan nan nan nan nan nan nan nan nan 0 1 2 2 6 12 14 14 14 20 25 40 40 30 34 43 43 48 53 47 47 44 45 45 49 55 66 66 79
nan nan nan nan nan nan nan nan nan nan nan nan nan nan nan nan nan nan nan nan nan nan nan nan nan nan nan nan nan nan nan nan nan nan nan nan nan nan nan nan nan nan nan nan nan nan nan nan nan nan nan nan nan nan nan nan nan nan nan nan nan nan 0 1 1 nan 1 7 17 17 20 22 29 29 29 39 38 38 40 41 41 40 42 54 54 67
nan nan nan nan nan nan nan nan nan nan nan nan nan nan nan nan nan nan nan nan nan nan nan nan nan nan nan nan nan nan nan nan nan nan nan nan nan nan nan nan nan 0 0 nan nan nan nan nan nan nan nan nan nan nan nan nan nan nan nan nan nan nan nan nan nan nan nan nan 0 0 2 5 9 9 10 18 26 26 36 38 38 39 37 42 42 56
nan nan nan nan nan nan nan nan nan nan nan nan nan nan nan nan nan nan 2 3 3 3 nan nan nan nan nan nan nan nan nan nan nan nan nan nan nan nan 0 1 1 1 1 0 0 0 nan nan nan nan nan nan nan nan nan 0 0 0 0 0 0 nan nan nan nan nan nan nan nan nan nan nan 0 0 1 4 10 10 19 27 27 37 38 39 39 44
nan nan nan nan nan nan nan nan nan nan nan nan nan nan nan nan nan nan nan nan nan 1 nan nan nan nan nan 0 nan nan nan nan nan nan nan nan nan nan 0 3 3 3 2 2 2 1 1 0 0 0 0 nan nan nan nan 0 0 0 1 2 2 1 0 0 0 nan nan nan nan nan nan nan nan nan 0 0 3 3 8 17 17 27 33 36 36 37
1 nan nan nan nan nan nan nan nan nan 3 0 2 2 1 nan nan nan nan nan nan 0 nan nan nan nan nan 0 1 1 nan 0 6 6 6 3 7 7 4 2 2 1 3 3 3 3 2 1 1 1 1 1 0 0 0 0 0 0 1 2 2 2 1 0 0 0 1 1 1 1 1 0 0 0 1 1 1 1 3 9 9 16 25 33 33 37
nan 0 nan nan nan nan nan nan nan nan 5 1 1 1 2 0 0 0 nan nan nan nan nan 0 0 nan nan nan nan nan nan nan 1 1 5 6 5 5 4 3 3 4 4 4 4 3 2 2 2 2 2 2 1 1 1 1 1 1 1 1 1 1 0 2 2 7 10 12 13 13 12 12 11 11 10 10 7 7 9 11 11 15 22 29 29 37
0 0 nan nan nan nan nan nan 2 2 3 0 nan nan nan 1 3 3 0 nan nan nan nan 0 0 2 1 nan 0 0 0 nan 0 0 2 3 3 3 2 2 2 2 2 3 3 3 2 2 2 2 1 1 1 1 1 0 0 1 2 1 1 3 5 8 8 15 17 20 20 20 22 22 20 20 22 22 21 21 21 21 21 23 25 31 31 37
1 0 nan nan nan nan nan nan nan nan nan nan nan nan nan 0 2 2 4 2 2 1 0 0 0 1 2 1 0 0 nan nan 0 0 1 1 1 1 0 0 0 0 0 0 0 0 2 3 3 3 2 1 2 2 2 2 2 3 4 7 7 10 16 17 17 21 22 22 21 21 21 23 25 25 25 26 27 27 27 26 26 28 29 31 31 37
nan nan nan nan nan nan nan nan nan nan nan nan nan nan 2 3 4 4 3 3 3 3 3 2 2 2 1 1 1 1 0 0 0 0 0 0 1 1 0 0 0 0 nan nan nan 0 2 2 2 1 3 2 3 3 5 6 6 8 10 13 13 17 20 21 21 22 24 23 26 26 25 27 26 26 26 28 27 27 28 27 27 28 30 33 33 36
nan nan nan nan nan nan nan nan nan nan nan nan 1 1 3 3 4 4 3 3 3 4 5 4 4 2 0 1 1 1 2 1 0 0 0 0 2 2 1 0 0 0 nan nan nan 0 2 1 1 2 2 4 5 5 8 9 9 13 15 18 18 18 20 20 20 24 25 27 30 30 29 32 32 32 33 32 32 32 29 30 30 33 33 34 34 35
1 0 0 nan nan nan nan nan nan nan nan 0 1 1 1 2 5 5 6 6 6 6 5 4 4 1 0 0 2 2 2 2 1 1 0 0 1 1 0 nan nan 0 nan nan nan nan 1 1 1 3 4 7 8 8 10 15 15 18 18 20 20 20 21 22 22 24 25 28 29 29 33 36 40 40 41 41 38 38 38 40 40 38 37 37 37 34
2 1 0 nan nan nan nan nan nan nan 0 0 2 2 4 5 7 7 9 7 7 5 5 3 3 2 0 nan 1 1 1 0 1 1 0 nan nan nan 0 0 0 nan nan nan nan nan 0 1 1 2 5 11 15 15 17 19 19 23 23 22 22 24 24 25 25 26 27 30 32 32 33 36 41 41 50 53 47 47 48 47 47 44 41 39 39 37
4 1 0 nan nan nan nan nan 0 0 2 1 4 4 6 7 8 8 5 4 4 4 3 2 2 1 0 nan nan nan 0 nan nan nan nan nan nan nan 0 0 0 nan nan nan nan 0 0 1 1 4 7 16 19 19 22 27 27 27 27 25 25 26 26 27 27 27 28 29 32 32 31 34 41 41 55 59 59 59 56 53 53 51 48 48 48 44
2 1 0 0 0 0 0 0 0 0 1 2 7 7 9 8 5 5 4 3 3 2 2 1 1 1 nan nan nan nan nan nan 0 0 nan nan nan nan nan nan nan nan nan nan nan 0 0 5 5 12 13 16 18 18 21 25 25 27 26 26 26 26 25 26 26 25 28 29 30 30 31 33 40 40 47 59 67 67 65 65 65 60 59 55 55 51
1 1 0 1 1 1 0 1 2 2 4 8 10 10 8 5 3 3 2 2 2 2 2 1 1 0 nan nan nan nan nan nan nan nan nan nan nan nan nan nan nan nan nan nan nan 0 nan 5 5 7 6 11 15 15 18 21 21 24 24 25 25 25 24 24 24 26 28 29 31 31 35 36 41 41 49 57 68 68 68 75 75 72 67 62 62 65
1 1 0 1 1 1 1 2 4 4 8 12 9 9 6 4 2 2 2 2 2 2 1 1 1 0 nan nan nan nan nan nan nan nan nan nan nan nan nan nan nan nan nan nan nan nan nan 0 0 0 3 8 11 11 13 15 15 17 18 20 20 20 21 22 22 24 26 28 33 33 36 40 41 41 47 52 59 59 65 72 72 79 75 77 77 80
3 2 1 4 4 4 4 4 8 8 11 18 8 8 5 4 4 4 3 3 3 2 2 1 1 0 0 nan nan nan 0 nan 0 0 1 1 nan nan nan nan nan nan nan nan nan nan nan nan nan nan 2 8 9 9 10 12 12 12 16 17 17 18 20 22 22 24 25 28 30 30 34 38 44 44 48 53 57 57 59 70 70 74 82 91 91 92
6 7 6 7 7 5 7 5 6 6 8 13 10 10 6 5 5 5 4 4 4 3 2 2 2 2 0 nan 0 0 0 0 2 2 3 2 nan nan nan nan nan nan nan nan nan nan nan nan nan nan 2 13 11 11 11 14 14 16 18 20 20 22 24 24 24 24 25 28 29 29 32 37 43 43 49 53 57 57 58 64 64 76 84 89 89 94
8 9 7 6 6 7 7 6 6 6 5 5 5 5 12 8 3 3 4 5 5 5 5 3 3 3 3 1 0 0 0 1 3 3 3 1 nan nan nan nan nan nan nan nan nan nan nan 0 0 nan 1 13 14 14 15 16 16 19 20 23 23 24 25 23 23 26 29 28 29 29 33 36 36 36 39 42 46 46 48 50 50 64 74 82 82 89
7 6 5 5 5 11 6 4 5 5 5 4 4 4 8 9 8 8 5 5 5 5 6 5 5 3 1 1 0 0 nan nan 0 0 1 1 nan nan nan nan nan nan 0 nan nan nan nan nan nan 0 1 6 12 12 13 15 15 17 19 23 23 23 24 25 25 26 29 29 32 32 33 37 35 35 34 33 30 30 28 32 32 36 44 54 54 65
7 6 5 6 6 13 13 14 13 13 12 4 4 4 4 5 6 6 6 5 5 4 4 3 3 2 0 nan nan nan nan nan nan nan 0 1 1 1 0 0 0 nan 0 0 0 nan nan 0 0 0 1 2 9 9 10 12 12 15 18 19 19 21 23 24 24 25 27 28 30 30 31 32 30 30 29 27 25 25 25 25 25 26 27 34 34 38
9 9 11 11 11 11 11 11 13 13 18 16 7 7 6 7 8 8 6 4 4 3 2 1 1 0 0 nan nan nan nan nan nan nan nan 1 2 2 1 0 0 1 1 0 0 1 1 1 1 1 0 0 2 2 9 10 10 12 13 16 16 18 19 19 19 19 19 19 20 20 23 22 23 23 23 24 24 24 26 25 25 25 25 24 24 28
7 6 5 5 5 5 6 9 10 10 12 14 18 18 14 10 5 5 3 2 2 4 2 1 1 0 0 0 nan nan nan nan nan nan nan 1 1 1 0 0 0 1 0 0 0 3 7 4 4 1 0 nan 1 1 5 8 8 8 9 10 10 11 12 14 14 15 17 16 17 17 16 18 18 18 18 20 23 23 25 27 27 29 27 20 20 11
2 2 2 3 3 3 4 5 6 6 7 10 14 14 11 5 4 4 2 2 2 3 2 1 1 1 1 1 0 0 nan nan nan nan 1 3 2 2 1 1 1 1 1 2 2 4 3 1 1 0 0 0 0 0 2 6 6 5 6 8 8 7 8 9 9 11 14 15 15 15 16 15 16 16 15 17 18 18 22 25 25 27 26 19 19 13
nan nan 0 0 0 1 1 0 1 1 4 6 9 9 7 2 2 2 2 3 3 4 2 2 2 2 1 1 1 1 nan nan nan nan 1 1 2 2 2 1 1 2 2 0 0 1 0 nan nan nan nan 0 nan nan 0 1 1 2 2 5 5 4 5 6 6 8 12 12 14 14 16 16 16 16 15 15 15 15 16 18 18 23 20 15 15 14
nan nan nan nan nan nan nan nan 0 0 2 5 6 6 4 2 1 1 2 2 2 4 3 2 2 3 2 1 1 1 nan nan nan nan 0 1 1 1 1 1 1 2 3 0 0 nan nan nan nan nan 0 1 0 0 0 nan nan nan nan 0 0 1 4 5 5 7 9 12 13 13 15 15 15 15 14 15 14 14 15 16 16 17 12 11 11 12
nan nan nan nan nan nan nan nan nan nan nan nan 0 0 1 2 3 3 4 5 5 5 5 4 4 4 2 3 1 1 nan nan nan nan 2 1 1 1 3 2 2 3 3 5 5 2 0 0 0 nan 0 0 0 0 1 1 1 1 0 nan nan nan 1 4 4 4 4 6 9 9 9 9 10 10 10 12 14 14 13 13 13 16 11 8 8 12
nan nan nan nan nan nan nan nan nan nan nan nan nan nan nan 0 3 3 5 5 5 7 6 5 5 3 2 1 1 1 0 nan 1 1 5 2 2 2 2 2 2 3 3 3 3 2 2 2 2 0 0 1 1 1 1 2 2 2 1 0 0 nan 0 2 2 2 3 4 6 6 9 7 9 9 10 11 13 13 13 13 13 15 17 9 9 12
nan nan nan nan nan nan nan nan nan nan nan nan nan nan nan 0 1 1 3 3 3 4 5 3 3 3 3 2 1 1 nan nan 1 1 5 3 2 2 3 2 2 1 1 2 2 1 1 2 2 1 1 1 1 1 1 1 1 1 1 1 1 0 0 1 1 1 2 2 2 2 3 3 9 9 7 10 11 11 14 16 16 16 19 15 15 13
nan nan nan nan nan nan nan nan nan nan nan nan nan nan nan 0 1 1 3 3 3 4 3 3 3 2 3 1 1 1 0 nan 1 1 7 5 3 3 3 3 3 2 3 2 2 2 2 3 3 3 3 1 0 0 0 1 1 1 1 2 2 2 2 3 3 3 2 1 1 1 1 1 3 3 4 8 12 12 16 19 19 21 21 23 23 18
nan nan nan nan nan nan nan nan nan nan nan nan nan nan nan 1 1 1 2 5 5 5 6 6 6 5 2 2 1 1 1 nan 2 2 8 5 4 4 3 4 4 3 2 3 3 1 1 3 3 4 5 2 1 1 0 0 0 1 1 2 2 2 2 3 3 3 1 1 1 1 1 1 3 3 4 13 18 18 20 23 23 25 25 27 27 24
nan nan nan nan nan nan nan nan nan nan nan nan 0 0 0 0 1 1 3 8 8 9 8 11 11 8 10 4 2 2 4 3 5 5 7 9 6 6 4 3 3 7 3 3 3 3 2 2 2 3 2 1 0 0 0 0 0 0 0 1 1 1 1 1 1 2 0 2 1 1 1 2 4 4 6 13 16 16 20 25 25 27 27 28 28 27
0 nan nan nan nan nan nan nan nan nan nan nan nan nan nan 0 1 1 2 5 5 7 5 4 4 4 13 12 10 10 8 10 9 9 11 11 8 8 4 5 5 7 5 4 4 4 2 3 3 2 1 0 1 1 1 0 0 0 1 0 0 1 1 1 1 2 2 3 4 4 4 3 3 3 4 7 8 8 9 11 11 20 27 26 26 29
nan nan nan nan nan nan nan nan nan nan nan nan 0 0 0 1 2 2 2 3 3 3 4 4 4 3 8 15 19 19 15 12 15 15 18 13 8 8 5 3 3 4 5 5 5 4 3 2 2 2 1 0 0 0 0 0 0 0 0 1 1 1 1 2 2 4 4 4 5 5 2 2 2 2 2 3 6 6 6 7 7 14 16 14 14 25
0 0 nan 0 0 nan nan nan nan nan nan 0 1 1 1 1 1 1 2 2 2 2 3 3 3 3 4 6 8 8 14 17 19 19 19 16 11 11 5 4 4 3 4 3 3 2 2 2 2 2 3 1 1 1 1 1 1 1 3 1 1 0 1 2 2 2 3 2 2 2 2 1 2 2 3 4 5 5 4 5 5 9 13 10 10 13
0 0 0 0 0 0 0 0 0 0 0 0 1 1 1 1 1 1 1 2 2 2 2 3 3 4 5 5 4 4 6 11 12 12 16 14 16 16 7 6 6 3 1 2 2 2 2 1 1 2 1 1 2 2 3 1 1 6 7 2 2 1 1 3 3 3 3 2 3 3 5 5 5 5 4 5 4 4 3 6 6 7 12 7 7 11
2 1 0 0 0 0 0 1 3 3 3 1 2 2 1 1 1 1 2 3 3 2 3 3 3 4 5 3 2 2 5 6 11 11 13 11 12 12 14 8 8 4 3 2 2 3 5 4 4 2 2 1 0 0 1 2 2 4 5 3 3 2 4 4 4 1 1 4 4 4 8 5 4 4 4 3 3 3 5 3 3 10 12 6 6 7
2 1 1 1 1 1 3 6 5 5 3 1 1 1 1 1 2 2 3 2 2 3 3 4 4 4 4 3 2 2 5 8 8 8 10 13 18 18 18 13 13 7 3 3 3 4 5 6 6 2 1 0 0 0 2 2 2 2 2 4 4 3 0 0 0 0 1 2 2 2 2 2 2 2 3 3 3 3 4 8 8 15 15 5 5 5
2 2 2 4 4 4 5 6 4 4 2 2 2 2 1 1 3 3 5 3 3 4 5 6 6 7 4 3 3 3 2 3 5 5 7 10 12 12 15 14 14 8 5 3 3 2 2 4 4 2 1 0 0 0 0 1 1 1 0 3 3 2 1 0 0 0 1 2 2 2 1 2 1 1 3 3 3 3 3 3 3 3 8 6 6 6
3 4 5 5 5 7 6 5 3 3 2 2 1 1 1 1 3 3 4 5 5 6 5 7 7 8 3 3 1 1 1 1 2 2 3 7 13 13 11 8 8 7 5 4 4 1 2 3 3 2 1 1 0 0 0 1 1 1 2 3 3 3 1 1 1 2 1 1 1 1 1 3 2 2 3 3 3 3 3 2 2 4 4 4 4 4
4 4 4 3 3 3 4 4 3 3 2 1 1 1 1 2 4 4 4 6 6 7 7 6 6 5 3 3 2 2 1 1 0 0 0 2 6 6 7 7 7 5 5 6 6 4 1 0 0 2 1 1 1 1 nan nan nan 1 1 2 2 2 1 1 1 2 1 1 1 1 2 3 2 2 2 3 2 2 2 1 1 2 2 2 2 3
3 2 3 3 3 3 3 4 4 4 2 2 1 1 1 1 2 2 5 4 4 5 8 9 9 8 4 4 2 2 2 1 1 1 0 0 2 2 2 3 3 6 3 2 2 5 3 3 3 4 1 2 0 0 0 0 0 0 0 0 0 1 1 1 1 1 1 1 1 1 3 4 2 2 4 2 0 0 1 1 1 2 2 2 2 2
4 4 5 5 5 5 3 4 4 4 3 2 1 1 1 2 4 4 5 7 7 10 13 9 9 9 5 5 2 2 1 1 1 1 0 0 1 1 2 1 1 3 4 3 3 5 5 6 6 7 2 nan 0 0 0 0 0 0 0 0 0 0 1 0 0 0 1 1 1 1 3 3 2 2 3 2 1 1 2 2 2 2 2 2 2 3
3 5 5 5 5 4 3 3 3 3 3 2 1 1 1 5 14 14 5 6 6 8 7 8 8 6 7 5 4 4 4 4 2 2 1 1 1 1 2 2 2 2 2 4 4 4 5 8 8 9 5 0 nan nan 0 0 0 0 0 0 0 0 0 1 1 1 1 1 1 1 2 2 1 1 1 3 2 2 2 2 2 2 2 3 3 2
5 3 4 2 2 3 3 3 2 2 1 2 2 2 2 5 6 6 5 5 5 6 5 5 5 6 7 5 4 4 4 2 2 2 2 1 2 2 3 3 3 4 3 3 3 3 3 5 5 8 13 4 1 1 0 0 0 0 1 1 1 1 0 1 1 1 1 1 1 1 2 4 4 4 1 3 4 4 2 2 2 3 2 3 3 1
6 5 3 2 2 2 1 1 2 2 1 2 1 1 2 5 5 5 5 5 5 4 4 4 4 5 4 5 6 6 5 2 3 3 3 2 1 1 2 2 2 4 3 3 3 2 0 0 0 1 6 14 3 3 nan 0 0 0 2 2 2 2 1 1 1 1 3 2 2 2 4 5 4 4 1 1 3 3 3 1 1 1 1 3 3 3
CIN
nan nan nan nan nan nan nan nan nan nan nan nan nan nan nan nan nan nan nan nan nan nan nan nan nan nan nan nan nan nan nan nan nan nan nan nan nan nan nan nan nan nan nan nan nan nan nan nan nan -0 -0 -0 -0 -0 -0 -0 -0 -0 -0 -0 -0 -0 -0 -0 -0 -0 -0 -0 -0 -0 -0 -0 -0 -0 -0 -0 -0 -0 -0 -0 -0 -0 -0 -0 -0 -0
nan nan nan nan nan nan nan nan nan nan nan nan nan nan nan nan nan nan nan nan nan nan nan nan nan nan nan nan nan nan nan nan nan nan nan nan nan nan nan nan nan nan nan -0 -0 -0 -0 -0 -0 -0 -0 -0 -0 -0 -0 -0 -0 -0 -0 -0 -0 -0 -0 -0 -0 -0 -0 -0 -0 -0 -0 -0 -0 -0 -0 -0 -0 -0 -0 -0 -0 -0 -0 -0 -0 -0
nan nan nan nan nan nan nan nan nan nan nan nan nan nan nan nan nan nan nan nan nan nan nan nan nan nan nan nan nan nan nan nan nan nan nan nan nan nan nan nan nan nan nan nan nan nan nan -0 -0 -0 -0 -0 -0 -0 -0 -0 -0 -0 -0 -0 -0 -0 -0 -0 -0 -0 -0 -0 -0 -0 -0 -0 -0 -0 -0 -0 -0 -0 -0 -0 -0 -0 -0 -0 -0 -0
nan nan nan nan nan nan nan nan nan nan nan nan nan nan nan nan nan nan nan nan nan nan nan nan nan nan nan nan nan nan nan nan nan nan nan nan nan nan nan nan nan nan nan nan nan nan nan nan nan nan -0 -0 -0 -0 -0 -0 -0 -0 -0 -0 -0 -0 -0 -0 -0 -0 -0 -0 -0 -0 -0 -0 -0 -0 -0 -0 -0 -0 -0 -0 -0 -0 -0 -0 -0 -0
nan nan nan nan nan nan nan nan nan nan nan nan nan nan nan nan nan nan nan nan nan nan nan nan nan nan nan nan nan nan nan nan nan nan nan nan nan nan nan nan nan nan nan nan nan nan nan nan nan nan nan nan nan nan nan nan nan -0 -0 -0 -0 -0 -0 -0 -0 -0 -0 -0 -0 -0 -0 -0 -0 -0 -0 -0 -0 -0 -0 -0 -0 -0 -0 -0 -0 -0
nan nan nan nan nan nan nan nan nan nan nan nan nan nan nan nan nan nan nan nan nan nan nan nan nan nan nan nan nan nan nan nan nan nan nan nan nan nan nan nan nan nan nan nan nan nan nan nan nan nan nan nan nan nan nan nan nan nan nan nan nan nan -0 -0 -0 nan -0 -0 -0 -0 -0 -0 -0 -0 -0 -0 -0 -0 -0 -0 -0 -0 -0 -0 -0 -0
nan nan nan nan nan nan nan nan nan nan nan nan nan nan nan nan nan nan nan nan nan nan nan nan nan nan nan nan nan nan nan nan nan nan nan nan nan nan nan nan nan -0 -0 nan nan nan nan nan nan nan nan nan nan nan nan nan nan nan nan nan nan nan nan nan nan nan nan nan -3 -3 -0 -0 -0 -0 -0 -0 -0 -0 -0 -0 -0 -0 -0 -0 -0 -0
nan nan nan nan nan nan nan nan nan nan nan nan nan nan nan nan nan nan -0 -0 -0 -0 nan nan nan nan nan nan nan nan nan nan nan nan nan nan nan nan -0 -0 -0 -0 -0 -0 -0 -0 nan nan nan nan nan nan nan nan nan -0 -0 -0 -0 -0 -0 nan nan nan nan nan nan nan nan nan nan nan -0 -0 -0 -0 -0 -0 -0 -0 -0 -0 -0 -0 -0 -0
nan nan nan nan nan nan nan nan nan nan nan nan nan nan nan nan nan nan nan nan nan -0 nan nan nan nan nan -0 nan nan nan nan nan nan nan nan nan nan -0 -0 -0 -0 -0 -0 -0 -0 -0 -0 -0 -0 -0 nan nan nan nan -0 -0 -0 -0 -0 -0 -0 -0 -0 -0 nan nan nan nan nan nan nan nan nan -0 -0 -0 -0 -0 -0 -0 -0 -0 -0 -0 -0
-0 nan nan nan nan nan nan nan nan nan -0 -0 -0 -0 -0 nan nan nan nan nan nan -0 nan nan nan nan nan -0 -0 -0 nan -0 -0 -0 -0 -0 -0 -0 -0 -0 -0 -0 -0 -0 -0 -0 -0 -0 -0 -0 -0 -0 -0 -0 -0 -0 -0 -0 -0 -0 -0 -0 -0 -0 -0 -0 -0 -0 -0 -0 -0 -0 -0 -0 -0 -0 -0 -0 -0 -0 -0 -0 -0 -0 -0 -0
nan -0 nan nan nan nan nan nan nan nan -0 -0 -0 -0 -0 -0 -0 -0 nan nan nan nan nan -0 -0 nan nan nan nan nan nan nan -0 -0 -0 -0 -0 -0 -0 -0 -0 -0 -0 -0 -0 -0 -0 -0 -0 -0 -0 -0 -0 -0 -0 -0 -0 -0 -0 -0 -0 -0 -0 -0 -0 -0 -0 -0 -0 -0 -0 -0 -0 -0 -0 -0 -0 -0 -0 -0 -0 -0 -0 -0 -0 -0
-0 -0 nan nan nan nan nan nan -0 -0 -0 -0 nan nan nan -0 -0 -0 -0 nan nan nan nan -0 -0 -0 -0 nan -0 -0 -0 nan -0 -0 -0 -0 -0 -0 -0 -0 -0 -0 -0 -0 -0 -0 -0 -0 -0 -0 -0 -0 -0 -0 -0 -0 -0 -0 -0 -0 -0 -0 -0 -0 -0 -0 -0 -0 -0 -0 -0 -0 -0 -0 -0 -0 -0 -0 -0 -0 -0 -0 -0 -0 -0 -0
-0 -0 nan nan nan nan nan nan nan nan nan nan nan nan nan -0 -0 -0 -0 -0 -0 -0 -0 -0 -0 -0 -0 -0 -0 -0 nan nan -0 -0 -0 -0 -0 -0 -0 -0 -0 -0 -0 -0 -0 -0 -0 -0 -0 -0 -0 -0 -0 -0 -0 -0 -0 -0 -0 -0 -0 -0 -0 -0 -0 -0 -0 -0 -0 -0 -0 -0 -0 -0 -0 -0 -0 -0 -0 -0 -0 -0 -0 -0 -0 -0
nan nan nan nan nan nan nan nan nan nan nan nan nan nan -0 -0 -0 -0 -0 -0 -0 -0 -0 -0 -0 -0 -0 -0 -0 -0 -0 -0 -0 -0 -0 -0 -0 -0 -0 -0 -0 -0 nan nan nan -0 -0 -0 -0 -0 -0 -0 -0 -0 -0 -0 -0 -0 -0 -0 -0 -0 -0 -0 -0 -0 -0 -0 -0 -0 -0 -0 -0 -0 -0 -0 -0 -0 -0 -0 -0 -0 -0 -0 -0 -0
nan nan nan nan nan nan nan nan nan nan nan nan -0 -0 -0 -0 -0 -0 -0 -0 -0 -0 -0 -0 -0 -0 -0 -0 -0 -0 -0 -0 -0 -0 -0 -0 -0 -0 -0 -0 -0 -0 nan nan nan -0 -0 -0 -0 -0 -0 -0 -0 -0 -0 -0 -0 -0 -0 -0 -0 -0 -0 -0 -0 -0 -0 -0 -0 -0 -0 -0 -0 -0 -0 -0 -0 -0 -0 -0 -0 -0 -0 -0 -0 -0
-0 -0 -0 nan nan nan nan nan nan nan nan -0 -0 -0 -0 -0 -0 -0 -0 -0 -0 -0 -0 -0 -0 -0 -0 -0 -0 -0 -0 -0 -0 -0 -0 -0 -0 -0 -0 nan nan -0 nan nan nan nan -0 -0 -0 -0 -0 -0 -0 -0 -0 -0 -0 -0 -0 -0 -0 -0 -0 -0 -0 -0 -0 -0 -0 -0 -0 -0 -0 -0 -0 -0 -0 -0 -0 -0 -0 -0 -0 -0 -0 -0
-0 -0 -0 nan nan nan nan nan nan nan -0 -0 -0 -0 -0 -0 -0 -0 -0 -0 -0 -0 -0 -0 -0 -0 -0 nan -0 -0 -0 -0 -0 -0 -0 nan nan nan -0 -0 -0 nan nan nan nan nan -0 -0 -0 -0 -0 -0 -0 -0 -0 -0 -0 -0 -0 -0 -0 -0 -0 -0 -0 -0 -0 -0 -0 -0 -0 -0 -0 -0 -0 -0 -0 -0 -0 -0 -0 -0 -0 -0 -0 -0
-0 -0 -0 nan nan nan nan nan -0 -0 -0 -0 -0 -0 -0 -0 -0 -0 -0 -0 -0 -0 -0 -0 -0 -0 -0 nan nan nan -0 nan nan nan nan nan nan nan -0 -0 -0 nan nan nan nan -0 -0 -0 -0 -0 -0 -0 -0 -0 -0 -0 -0 -0 -0 -0 -0 -0 -0 -0 -0 -0 -0 -0 -0 -0 -0 -0 -0 -0 -0 -0 -0 -0 -0 -0 -0 -0 -0 -0 -0 -0
-0 -0 -0 -0 -0 -0 -0 -0 -0 -0 -0 -0 -0 -0 -0 -0 -0 -0 -0 -0 -0 -0 -0 -0 -0 -0 nan nan nan nan nan nan -0 -0 nan nan nan nan nan nan nan nan nan nan nan -0 -0 -0 -0 -0 -0 -0 -0 -0 -0 -0 -0 -0 -0 -0 -0 -0 -0 -0 -0 -0 -0 -0 -0 -0 -0 -0 -0 -0 -0 -0 -0 -0 -0 -0 -0 -0 -0 -0 -0 -0
-0 -0 -0 -0 -0 -0 -0 -0 -0 -0 -0 -0 -0 -0 -0 -0 -0 -0 -0 -0 -0 -0 -0 -0 -0 -0 nan nan nan nan nan nan nan nan nan nan nan nan nan nan nan nan nan nan nan -0 nan -0 -0 -0 -0 -0 -0 -0 -0 -0 -0 -0 -0 -0 -0 -0 -0 -0 -0 -0 -0 -0 -0 -0 -0 -0 -0 -0 -0 -0 -0 -0 -0 -0 -0 -0 -0 -0 -0 -0
-0 -0 -0 -0 -0 -0 -0 -0 -0 -0 -0 -0 -0 -0 -0 -0 -0 -0 -0 -0 -0 -0 -0 -0 -0 -0 nan nan nan nan nan nan nan nan nan nan nan nan nan nan nan nan nan nan nan nan nan -0 -0 -0 -0 -0 -0 -0 -0 -0 -0 -0 -0 -0 -0 -0 -0 -0 -0 -0 -0 -0 -0 -0 -0 -0 -0 -0 -0 -0 -0 -0 -0 -0 -0 -0 -0 -0 -0 -0
-0 -0 -0 -0 -0 -0 -0 -0 -0 -0 -0 -0 -0 -0 -0 -0 -0 -0 -0 -0 -0 -0 -0 -0 -0 -0 -0 nan nan nan -0 nan -0 -0 -0 -0 nan nan nan nan nan nan nan nan nan nan nan nan nan nan -0 -0 -0 -0 -0 -0 -0 -0 -0 -0 -0 -0 -0 -0 -0 -0 -0 -0 -0 -0 -0 -0 -0 -0 -0 -0 -0 -0 -0 -0 -0 -0 -0 -0 -0 -0
-0 -0 -0 -0 -0 -0 -0 -0 -0 -0 -0 -0 -0 -0 -0 -0 -0 -0 -0 -0 -0 -0 -0 -0 -0 -0 -0 nan -0 -0 -0 -0 -0 -0 -0 -0 nan nan nan nan nan nan nan nan nan nan nan nan nan nan -0 -0 -0 -0 -0 -0 -0 -0 -0 -0 -0 -0 -0 -0 -0 -0 -0 -0 -0 -0 -0 -0 -0 -0 -0 -0 -0 -0 -0 -0 -0 -0 -0 -0 -0 -0
-0 -0 -0 -0 -0 -0 -0 -0 -0 -0 -0 -0 -0 -0 -0 -0 -0 -0 -0 -0 -0 -0 -0 -0 -0 -0 -0 -0 -0 -0 -0 -0 -0 -0 -0 -0 nan nan nan nan nan nan nan nan nan nan nan -0 -0 nan -0 -0 -0 -0 -0 -0 -0 -0 -0 -0 -0 -0 -0 -0 -0 -0 -0 -0 -0 -0 -0 -0 -0 -0 -0 -0 -0 -0 -0 -0 -0 -0 -0 -0 -0 -0
-0 -0 -0 -0 -0 -0 -0 -0 -0 -0 -0 -0 -0 -0 -0 -0 -0 -0 -0 -0 -0 -0 -0 -0 -0 -0 -0 -0 -0 -0 nan nan -0 -0 -0 -0 nan nan nan nan nan nan -0 nan nan nan nan nan nan -0 -0 -0 -0 -0 -0 -0 -0 -0 -0 -0 -0 -0 -0 -0 -0 -0 -0 -0 -0 -0 -0 -0 -0 -0 -0 -0 -0 -0 -0 -0 -0 -0 -0 -0 -0 -0
-0 -0 -0 -0 -0 -0 -0 -0 -0 -0 -0 -0 -0 -0 -0 -0 -0 -0 -0 -0 -0 -0 -0 -0 -0 -0 -0 nan nan nan nan nan nan nan -0 -0 -0 -0 -0 -0 -0 nan -0 -0 -0 nan nan -0 -0 -0 -0 -0 -0 -0 -0 -0 -0 -0 -0 -0 -0 -0 -0 -0 -0 -0 -0 -0 -0 -0 -0 -0 -0 -0 -0 -0 -0 -0 -0 -0 -0 -0 -0 -0 -0 -0
-0 -0 -0 -0 -0 -0 -0 -0 -0 -0 -0 -0 -0 -0 -0 -0 -0 -0 -0 -0 -0 -0 -0 -0 -0 -0 -0 nan nan nan nan nan nan nan nan -0 -0 -0 -0 -0 -0 -0 -0 -0 -0 -0 -0 -0 -0 -0 -0 -0 -0 -0 -0 -0 -0 -0 -0 -0 -0 -0 -0 -0 -0 -0 -0 -0 -0 -0 -0 -0 -0 -0 -0 -0 -0 -0 -0 -0 -0 -0 -0 -0 -0 -0
-0 -0 -0 -0 -0 -0 -0 -0 -0 -0 -0 -0 -0 -0 -0 -0 -0 -0 -0 -0 -0 -0 -0 -0 -0 -0 -0 -0 nan nan nan nan nan nan nan -0 -0 -0 -0 -0 -0 -0 -0 -0 -0 -0 -0 -0 -0 -0 -0 nan -0 -0 -0 -0 -0 -0 -0 -0 -0 -0 -0 -0 -0 -0 -0 -0 -0 -0 -0 -0 -0 -0 -0 -0 -0 -0 -0 -0 -0 -0 -0 -0 -0 -0
-0 -0 -0 -0 -0 -0 -0 -0 -0 -0 -0 -0 -0 -0 -0 -0 -0 -0 -0 -0 -0 -0 -0 -0 -0 -0 -0 -0 -0 -0 nan nan nan nan -0 -0 -0 -0 -0 -0 -0 -0 -0 -0 -0 -0 -0 -0 -0 -0 -0 -0 -0 -0 -0 -0 -0 -0 -0 -0 -0 -0 -0 -0 -0 -0 -0 -0 -0 -0 -0 -0 -0 -0 -0 -0 -0 -0 -0 -0 -0 -0 -0 -0 -0 -0
nan nan -0 -0 -0 -0 -0 -0 -0 -0 -0 -0 -0 -0 -0 -0 -0 -0 -0 -0 -0 -0 -0 -0 -0 -0 -0 -0 -0 -0 nan nan nan nan -0 -0 -0 -0 -0 -0 -0 -0 -0 -0 -0 -0 -0 nan nan nan nan -0 nan nan -0 -0 -0 -0 -0 -0 -0 -0 -0 -0 -0 -0 -0 -0 -0 -0 -0 -0 -0 -0 -0 -0 -0 -0 -0 -0 -0 -0 -0 -0 -0 -0
nan nan nan nan nan nan nan nan -0 -0 -0 -0 -0 -0 -0 -0 -0 -0 -0 -0 -0 -0 -0 -0 -0 -0 -0 -0 -0 -0 nan nan nan nan -0 -0 -0 -0 -0 -0 -0 -0 -0 -0 -0 nan nan nan nan nan -0 -0 -0 -0 -0 nan nan nan nan -0 -0 -0 -0 -0 -0 -0 -0 -0 -0 -0 -0 -0 -0 -0 -0 -0 -0 -0 -0 -0 -0 -0 -0 -0 -0 -0
nan nan nan nan nan nan nan nan nan nan nan nan -0 -0 -0 -0 -0 -0 -0 -0 -0 -0 -0 -0 -0 -0 -0 -0 -0 -0 nan nan nan nan -0 -0 -0 -0 -0 -0 -0 -0 -0 -0 -0 -0 -0 -0 -0 nan -0 -0 -0 -0 -0 -0 -0 -0 -0 nan nan nan -0 -0 -0 -0 -0 -0 -0 -0 -0 -0 -0 -0 -0 -0 -0 -0 -0 -0 -0 -0 -0 -0 -0 -0
nan nan nan nan nan nan nan nan nan nan nan nan nan nan nan -0 -0 -0 -0 -0 -0 -0 -0 -0 -0 -0 -0 -0 -0 -0 -0 nan -0 -0 -0 -0 -0 -0 -0 -0 -0 -0 -0 -0 -0 -0 -0 -0 -0 -0 -0 -0 -0 -0 -0 -0 -0 -0 -0 -0 -0 nan -0 -0 -0 -0 -0 -0 -0 -0 -0 -0 -0 -0 -0 -0 -0 -0 -0 -0 -0 -0 -0 -0 -0 -0
nan nan nan nan nan nan nan nan nan nan nan nan nan nan nan -0 -0 -0 -0 -0 -0 -0 -0 -0 -0 -0 -0 -0 -0 -0 nan nan -0 -0 -0 -0 -0 -0 -0 -0 -0 -0 -0 -0 -0 -0 -0 -0 -0 -0 -0 -0 -0 -0 -0 -0 -0 -0 -0 -0 -0 -0 -0 -0 -0 -0 -0 -0 -0 -0 -0 -0 -0 -0 -0 -0 -0 -0 -0 -0 -0 -0 -0 -0 -0 -0
nan nan nan nan nan nan nan nan nan nan nan nan nan nan nan -0 -0 -0 -0 -0 -0 -0 -0 -0 -0 -0 -0 -0 -0 -0 -0 nan -0 -0 -0 -0 -0 -0 -0 -0 -0 -0 -0 -0 -0 -0 -0 -0 -0 -0 -0 -0 -0 -0 -0 -0 -0 -0 -0 -0 -0 -0 -0 -0 -0 -0 -0 -0 -0 -0 -0 -0 -0 -0 -0 -0 -0 -0 -0 -0 -0 -0 -0 -0 -0 -0
nan nan nan nan nan nan nan nan nan nan nan nan nan nan nan -0 -0 -0 -0 -0 -0 -0 -0 -0 -0 -0 -0 -0 -0 -0 -0 nan -0 -0 -0 -0 -0 -0 -0 -0 -0 -0 -0 -0 -0 -0 -0 -0 -0 -0 -0 -0 -0 -0 -0 -0 -0 -0 -0 -0 -0 -0 -0 -0 -0 -0 -0 -0 -0 -0 -0 -0 -0 -0 -0 -0 -0 -0 -0 -0 -0 -0 -0 -0 -0 -0
nan nan nan nan nan nan nan nan nan nan nan nan -0 -0 -0 -0 -0 -0 -0 -0 -0 -0 -0 -0 -0 -0 -0 -0 -0 -0 -0 -0 -0 -0 -0 -0 -0 -0 -0 -0 -0 -0 -0 -0 -0 -0 -0 -0 -0 -0 -0 -0 -0 -0 -0 -0 -0 -0 -0 -0 -0 -0 -0 -0 -0 -0 -0 -0 -0 -0 -0 -0 -0 -0 -0 -0 -0 -0 -0 -0 -0 -0 -0 -0 -0 -0
-0 nan nan nan nan nan nan nan nan nan nan nan nan nan nan -0 -0 -0 -0 -0 -0 -0 -0 -0 -0 -0 -0 -0 -0 -0 -0 -0 -0 -0 -0 -0 -0 -0 -0 -0 -0 -0 -0 -0 -0 -0 -0 -0 -0 -0 -0 -0 -0 -0 -0 -0 -0 -0 -0 -0 -0 -0 -0 -0 -0 -0 -0 -0 -0 -0 -0 -0 -0 -0 -0 -0 -0 -0 -0 -0 -0 -0 -0 -0 -0 -0
nan nan nan nan nan nan nan nan nan nan nan nan -0 -0 -0 -0 -0 -0 -0 -0 -0 -0 -0 -0 -0 -0 -0 -0 -0 -0 -0 -0 -0 -0 -0 -0 -0 -0 -0 -0 -0 -0 -0 -0 -0 -0 -0 -0 -0 -0 -0 -0 -0 -0 -0 -0 -0 -0 -0 -0 -0 -0 -0 -0 -0 -0 -0 -0 -0 -0 -0 -0 -0 -0 -0 -0 -0 -0 -0 -0 -0 -0 -0 -0 -0 -0
-0 -0 nan -0 -0 nan nan nan nan nan nan -0 -0 -0 -0 -0 -0 -0 -0 -0 -0 -0 -0 -0 -0 -0 -0 -0 -0 -0 -0 -2 -0 -0 -1 -2 -0 -0 -0 -0 -0 -0 -0 -0 -0 -0 -0 -0 -0 -0 -0 -0 -0 -0 -0 -0 -0 -0 -0 -0 -0 -0 -0 -0 -0 -0 -0 -0 -0 -0 -0 -0 -0 -0 -0 -0 -0 -0 -0 -0 -0 -0 -0 -0 -0 -0
-0 -0 -0 -0 -0 -0 -0 -0 -0 -0 -0 -0 -0 -0 -0 -0 -0 -0 -0 -0 -0 -0 -0 -0 -0 -0 -0 -0 -0 -0 -0 -1 -0 -0 -3 -4 -0 -0 -0 -0 -0 -0 -0 -0 -0 -0 -0 -0 -0 -0 -0 -0 -0 -0 -0 -0 -0 -0 -0 -0 -0 -0 -0 -0 -0 -0 -0 -0 -0 -0 -0 -0 -0 -0 -0 -0 -0 -0 -0 -0 -0 -0 -0 -0 -0 -0
-0 -0 -0 -0 -0 -0 -0 -0 -0 -0 -0 -0 -0 -0 -0 -0 -0 -0 -0 -0 -0 -0 -0 -0 -0 -0 -0 -0 -0 -0 -0 -0 -3 -3 -6 -8 -2 -2 -0 -0 -0 -0 -0 -0 -0 -0 -0 -0 -0 -0 -0 -0 -0 -0 -0 -0 -0 -0 -0 -0 -0 -0 -0 -0 -0 -0 -0 -0 -0 -0 -0 -0 -0 -0 -0 -0 -0 -0 -0 -8 -8 -0 -0 -3 -3 -4
-0 -0 -0 -0 -0 -0 -0 -0 -0 -0 -0 -0 -0 -0 -0 -0 -0 -0 -0 -0 -0 -0 -0 -0 -0 -0 -0 -0 -0 -0 -0 -0 -0 -0 -0 -7 -1 -1 -0 -0 -0 -0 -0 -0 -0 -0 -0 -0 -0 -0 -0 -0 -0 -0 -0 -0 -0 -0 -0 -0 -0 -0 -0 -0 -0 -0 -0 -0 -0 -0 -0 -0 -0 -0 -0 -0 -0 -0 -1 -0 -0 -0 -0 -4 -4 -5
-0 -0 -0 -0 -0 -0 -0 -0 -0 -0 -0 -0 -0 -0 -0 -0 -0 -0 -0 -0 -0 -0 -0 -0 -0 -0 -0 -0 -0 -0 -0 -0 -0 -0 -0 -0 -5 -5 -0 -0 -0 -0 -0 -0 -0 -0 -0 -0 -0 -0 -0 -0 -0 -0 -0 -0 -0 -0 -0 -0 -0 -0 -0 -0 -0 -0 -0 -0 -0 -0 -0 -0 -0 -0 -0 -0 -0 -0 -2 -0 -0 -0 -0 -0 -0 -0
-0 -0 -0 -0 -0 -0 -0 -0 -0 -0 -0 -0 -0 -0 -0 -0 -0 -0 -0 -0 -0 -0 -0 -0 -0 -0 -0 -0 -0 -0 -0 -0 -0 -0 -0 -0 -0 -0 -0 -0 -0 -0 -0 -0 -0 -0 -0 -0 -0 -0 -0 -0 -0 -0 -0 -0 -0 -0 -0 -0 -0 -0 -0 -0 -0 -0 -0 -0 -0 -0 -0 -0 -0 -0 -0 -0 -0 -0 -0 -0 -0 -0 -0 -0 -0 -1
-0 -0 -0 -0 -0 -0 -0 -0 -0 -0 -0 -0 -0 -0 -0 -0 -0 -0 -0 -0 -0 -0 -0 -0 -0 -0 -0 -0 -0 -0 -0 -0 -0 -0 -0 -0 -0 -0 -0 -0 -0 -0 -0 -0 -0 -0 -0 -0 -0 -0 -0 -0 -0 -0 nan nan nan -0 -0 -0 -0 -0 -0 -0 -0 -0 -0 -0 -0 -0 -0 -0 -0 -0 -0 -0 -0 -0 -0 -0 -0 -0 -1 -0 -0 -0
-0 -0 -0 -0 -0 -0 -0 -0 -0 -0 -0 -0 -0 -0 -0 -0 -0 -0 -0 -0 -0 -0 -0 -0 -0 -0 -0 -0 -0 -0 -0 -0 -0 -0 -0 -0 -0 -0 -0 -0 -0 -0 -0 -0 -0 -0 -0 -0 -0 -0 -0 -0 -0 -0 -0 -0 -0 -0 -0 -0 -0 -0 -0 -0 -0 -0 -0 -0 -0 -0 -0 -3 -0 -0 -0 -0 -1 -1 -0 -0 -0 -0 -0 -0 -0 -0
-0 -0 -0 -0 -0 -0 -0 -0 -0 -0 -0 -0 -0 -0 -0 -0 -0 -0 -0 -0 -0 -0 -0 -0 -0 -0 -0 -0 -0 -0 -0 -0 -0 -0 -0 -0 -0 -0 -0 -0 -0 -0 -0 -0 -0 -0 -0 -0 -0 -0 -0 nan -0 -0 -0 -0 -0 -0 -0 -0 -0 -0 -0 -0 -0 -0 -0 -0 -8 -8 -5 -1 -0 -0 -0 -0 -0 -0 -0 -0 -0 -0 -0 -0 -0 -0
-0 -0 -0 -0 -0 -0 -0 -0 -0 -0 -0 -0 -0 -0 -0 -0 -0 -0 -0 -0 -0 -0 -0 -0 -0 -0 -0 -0 -0 -0 -0 -0 -0 -0 -0 -0 -0 -0 -0 -0 -0 -0 -0 -0 -0 -0 -0 -0 -0 -0 -0 -0 nan nan -0 -0 -0 -0 -0 -0 -0 -0 -0 -0 -0 -0 -0 -2 -16 -16 -11 -0 -0 -0 -0 -0 -0 -0 -0 -0 -0 -0 -0 -0 -0 -0
-0 -0 -0 -0 -0 -0 -0 -0 -0 -0 -0 -0 -0 -0 -0 -0 -0 -0 -0 -0 -0 -0 -0 -0 -0 -0 -0 -0 -0 -0 -0 -0 -0 -0 -0 -0 -0 -0 -0 -0 -0 -0 -0 -0 -0 -0 -0 -1 -1 -0 -0 -0 -0 -0 -0 -0 -0 -0 -0 -0 -0 -0 -0 -0 -0 -0 -0 -0 -14 -14 -11 -1 -0 -0 -2 -0 -0 -0 -0 -0 -0 -0 -0 -0 -0 -1
-0 -0 -0 -0 -0 -0 -0 -0 -0 -0 -0 -0 -0 -0 -0 -0 -0 -0 -0 -0 -0 -0 -0 -0 -0 -0 -0 -0 -0 -0 -0 -0 -0 -0 -0 -0 -0 -0 -0 -0 -0 -0 -0 -0 -0 -0 -0 -0 -0 -0 -0 -0 -0 -0 nan -0 -0 -0 -0 -0 -0 -0 -0 -0 -0 -0 -0 -0 -8 -8 -11 -4 -0 -0 -3 -0 -0 -0 -0 -0 -0 -0 -0 -0 -0 -0
Wind_Speed
2 3 3 4 4 4 4 6 6 6 6 6 6 6 7 7 7 8 9 9 9 9 8 8 9 9 10 10 11 12 12 13 15 16 17 17 18 17 17 17 16 16 16 16 16 17 17 17 17 18 18 18 18 18 18 18 17 17 17 17 17 17 17 17 18 18 18 19 19 20 20 20 20 20 20 19 18 18 17 17 17 17 18 18 19 20
3 3 3 4 4 4 4 5 6 6 6 7 7 7 8 8 8 7 7 8 8 8 8 8 9 9 10 10 10 11 12 13 14 16 17 17 17 17 17 16 15 15 15 15 15 16 16 16 16 17 17 17 17 17 18 18 18 18 18 17 17 17 17 18 18 18 19 19 20 20 21 21 21 20 20 20 19 18 17 17 17 18 19 19 20 20
3 3 3 3 4 4 4 5 6 6 7 7 7 8 9 9 8 7 6 7 7 7 7 8 8 9 10 9 10 11 12 13 14 16 17 17 17 17 16 15 15 14 14 14 14 15 15 15 15 16 16 16 16 17 17 17 17 17 18 18 18 18 17 18 18 18 19 19 20 20 20 20 21 21 20 20 19 18 18 18 18 19 19 20 20 21
4 4 4 3 3 4 5 5 6 6 6 7 7 8 9 8 8 7 7 7 7 7 7 8 8 8 8 8 9 10 12 14 15 16 17 17 17 16 16 15 14 14 14 14 14 14 14 14 15 15 15 15 15 16 16 16 16 17 17 17 17 17 17 17 18 18 18 18 18 18 18 19 19 19 19 19 18 18 18 18 18 19 19 20 21 21
4 4 4 4 3 4 5 6 6 6 6 6 7 8 8 7 7 7 7 7 7 7 7 7 8 8 8 7 9 10 13 14 15 16 17 17 17 16 16 15 14 14 14 14 14 14 15 15 15 15 15 15 15 15 15 15 16 16 16 16 17 17 17 17 17 17 17 17 17 16 16 16 16 16 16 16 16 16 17 17 18 18 19 19 20 21
4 4 4 4 3 4 4 5 5 5 5 5 6 6 7 7 7 6 7 7 7 7 7 7 7 8 8 8 9 11 13 15 15 16 16 16 16 16 16 15 15 15 15 15 15 16 16 16 16 16 16 15 15 15 15 15 15 16 16 16 16 16 16 16 17 17 17 17 17 16 16 16 16 15 15 15 15 15 16 17 17 18 18 19 20 21
4 4 4 4 4 4 4 4 5 5 5 5 5 5 6 6 6 6 6 6 6 6 6 7 7 7 8 9 10 11 12 14 15 15 16 16 16 15 15 15 15 16 16 16 17 17 17 17 17 17 17 17 16 16 16 16 16 16 16 16 16 16 16 16 16 17 17 17 17 17 17 17 17 16 16 16 16 16 17 17 18 18 19 19 20 21
5 5 4 4 4 4 3 4 4 4 5 5 5 5 6 6 6 6 6 7 7 6 7 7 7 7 7 8 9 10 10 11 11 12 13 13 14 14 15 15 16 16 17 17 18 18 18 18 18 18 18 18 18 17 17 17 16 16 16 16 16 16 16 16 16 16 16 17 17 17 17 17 17 17 17 17 17 18 18 18 19 20 20 21 21 22
6 5 5 4 4 4 4 4 4 4 5 5 5 6 6 6 6 5 6 6 6 6 6 7 7 7 7 8 8 9 9 9 9 10 10 10 11 12 13 14 15 16 17 18 18 18 19 19 19 19 19 19 19 18 18 17 17 16 16 16 15 15 15 16 16 16 16 16 17 17 17 17 18 18 18 19 19 19 19 20 20 21 21 22 22 22
5 6 5 4 4 4 4 4 4 4 5 5 5 5 6 6 7 6 6 6 6 6 6 7 7 8 7 7 8 8 9 9 10 11 12 11 12 13 13 14 14 15 17 17 18 18 19 19 19 19 19 19 19 19 18 18 17 16 16 15 15 15 15 16 16 16 16 16 16 17 17 17 18 18 18 19 19 19 20 20 21 21 22 22 22 23
5 5 5 4 4 4 4 4 4 4 5 5 5 5 5 5 6 7 8 7 7 7 6 6 7 7 8 7 7 7 8 8 9 9 11 12 13 13 14 14 14 15 16 16 17 17 18 18 18 18 18 18 18 18 17 17 16 16 15 15 15 15 16 16 16 16 16 16 16 17 17 17 18 18 18 19 19 19 20 20 20 21 21 22 22 22
4 4 4 4 4 4 4 4 4 4 5 5 5 5 4 5 5 6 8 8 8 8 8 7 7 7 8 8 7 7 7 7 7 7 7 8 9 10 11 11 11 12 13 14 14 15 16 17 17 17 17 17 17 17 16 16 15 15 15 15 15 16 16 16 16 16 17 17 17 17 18 18 18 18 19 19 19 19 20 20 20 20 21 21 21 22
4 4 3 4 4 4 4 4 4 4 4 4 5 5 5 5 6 6 7 8 8 8 8 8 7 7 7 7 7 6 6 7 7 7 7 7 7 8 8 8 8 9 9 10 10 11 13 15 15 15 16 15 16 15 15 15 15 15 15 15 16 16 16 16 17 17 17 18 18 18 18 18 19 19 19 19 19 20 20 20 20 20 20 21 21 22
4 4 4 4 4 4 4 5 5 5 4 4 5 5 6 6 6 6 7 7 8 8 8 8 8 7 6 7 7 6 6 7 7 7 7 7 7 7 8 8 8 8 8 8 8 9 11 12 12 12 14 14 14 14 14 14 14 15 15 16 16 17 17 17 18 18 18 19 19 19 19 19 19 19 19 20 20 20 20 20 20 20 21 21 21 21
5 5 5 5 5 5 5 5 5 5 5 5 5 6 6 6 6 7 7 8 8 8 8 8 8 7 5 5 6 6 7 7 7 7 8 8 7 8 9 9 9 8 8 9 9 9 11 10 9 9 10 12 12 13 13 14 15 16 16 17 17 18 18 18 19 19 19 19 19 19 19 19 19 19 20 20 20 20 20 20 20 20 21 21 21 21
5 5 6 6 5 5 5 5 5 5 6 6 6 6 6 6 6 7 7 8 8 7 7 8 8 7 5 5 5 6 7 7 7 8 9 8 8 8 9 9 9 9 8 9 9 9 9 9 9 9 9 11 13 14 15 15 16 17 17 18 18 19 19 19 19 20 20 20 20 20 20 20 20 20 20 20 20 20 20 20 20 21 21 21 21 21
5 5 5 6 6 6 5 5 5 6 6 6 6 6 6 6 6 7 7 7 7 6 6 7 7 7 5 5 5 5 7 7 7 8 9 9 8 8 8 9 9 9 9 9 8 8 8 8 8 8 9 11 14 15 16 17 17 18 19 19 19 19 20 20 20 20 20 20 20 20 20 20 20 20 20 20 20 20 20 20 21 21 21 21 21 21
5 5 6 6 6 6 5 5 5 5 6 6 6 6 6 6 6 7 7 7 7 7 7 6 6 6 6 6 5 5 7 8 8 9 9 9 9 8 8 8 9 9 9 9 8 8 8 8 8 9 10 14 16 17 17 18 18 19 19 19 20 20 20 20 20 20 21 21 21 21 21 21 20 20 20 20 20 20 20 21 21 21 21 21 21 21
5 5 5 5 5 5 5 5 5 5 5 5 6 6 6 6 7 7 7 7 7 7 7 7 7 6 7 7 7 7 8 8 9 9 10 10 9 8 7 8 8 8 8 8 8 8 8 8 9 11 14 16 17 18 18 18 18 19 19 20 20 20 21 21 21 21 21 21 21 21 21 21 21 20 20 20 20 20 20 20 21 21 21 21 22 22
6 6 5 5 5 6 6 5 5 5 6 6 6 7 7 7 7 7 7 7 7 7 7 8 8 8 7 8 8 8 8 9 9 9 9 10 9 8 7 8 8 9 8 8 8 8 8 8 9 11 14 15 16 17 18 18 18 19 19 20 20 21 21 21 21 21 21 21 21 21 21 21 21 21 20 20 20 20 20 20 20 21 21 21 21 22
6 6 5 5 5 5 5 5 5 6 7 7 7 7 7 7 7 7 7 7 7 7 7 7 8 8 7 8 9 9 9 9 9 8 7 7 7 7 7 7 8 9 9 8 8 8 8 9 9 9 11 14 16 17 18 19 19 20 20 20 21 21 21 21 21 21 21 21 21 21 21 21 21 21 20 20 20 20 20 20 20 20 21 21 21 22
5 5 6 6 6 5 5 6 7 8 9 8 8 7 6 7 7 7 7 7 8 8 8 8 8 8 8 9 9 9 9 9 8 8 6 7 8 7 6 7 8 9 9 9 8 9 9 9 9 10 12 15 17 18 19 20 20 20 21 21 21 21 21 21 21 21 21 21 21 21 21 21 21 20 20 20 20 20 20 20 20 20 20 21 21 22
5 5 5 6 6 6 6 7 7 7 8 8 7 7 6 7 7 7 7 7 8 8 8 8 8 9 9 9 9 9 8 8 7 7 6 8 8 7 6 7 8 8 8 8 9 9 9 9 9 10 12 16 18 19 20 20 20 21 21 21 21 21 21 21 21 21 21 21 21 21 21 20 20 20 20 19 19 20 20 20 21 21 21 21 21 21
5 5 6 5 6 6 6 7 7 7 7 7 7 7 7 7 7 7 7 8 8 8 8 8 8 9 8 9 8 8 7 7 6 6 5 6 7 7 7 7 8 9 9 8 9 9 9 9 9 9 11 14 17 19 20 20 20 21 21 21 21 21 21 21 21 21 21 21 21 21 20 20 20 20 20 20 20 20 21 21 22 22 22 22 22 21
5 6 6 6 7 8 9 9 9 9 9 8 7 7 7 8 8 8 8 7 7 7 7 8 8 8 7 7 7 6 6 6 6 6 5 5 6 7 7 7 8 9 9 8 9 9 9 9 9 9 10 12 15 18 19 20 20 20 20 20 20 20 21 21 21 21 21 21 21 21 21 20 20 21 21 21 21 22 22 23 23 23 23 23 23 22
7 8 9 10 12 14 15 15 15 14 14 11 9 7 7 7 7 7 7 6 6 6 7 8 8 8 6 6 6 6 5 6 6 6 6 5 6 7 7 7 7 8 9 8 9 9 9 9 9 10 10 11 13 16 18 19 19 19 19 19 20 20 20 20 21 21 21 21 21 21 22 22 22 22 23 23 23 23 24 24 24 24 24 24 24 23
11 12 13 15 16 16 17 16 16 16 15 13 11 9 7 6 6 6 6 6 5 6 6 7 8 7 7 6 6 6 6 5 5 6 6 6 6 6 6 6 7 8 9 9 8 9 10 10 10 10 10 10 11 12 15 17 18 18 19 19 19 20 20 20 21 21 21 22 22 22 23 23 23 24 24 24 24 24 24 24 24 24 24 23 21 20
11 12 13 14 14 14 14 14 14 13 13 12 12 11 8 6 6 6 6 5 5 5 6 7 7 7 6 6 6 6 7 6 5 6 6 5 5 5 6 6 7 8 9 8 8 9 10 10 10 10 9 9 9 10 12 14 16 17 18 19 19 20 20 21 21 21 21 22 22 22 23 23 24 24 24 24 24 24 24 23 23 23 21 19 15 13
10 11 12 12 12 12 12 11 11 11 11 11 11 10 7 5 5 5 5 5 5 5 6 6 7 7 6 7 7 7 7 6 6 5 5 5 5 5 6 7 7 7 8 8 8 8 8 8 8 8 8 9 9 9 10 12 13 14 16 18 19 19 20 20 20 21 21 21 21 22 22 23 23 23 23 23 23 23 23 23 22 20 16 14 12 11
9 9 9 9 9 9 8 8 8 8 9 9 9 9 7 5 5 5 5 5 5 6 6 6 7 7 7 7 6 6 5 5 4 5 5 5 5 5 6 7 7 7 6 6 6 6 6 6 6 7 8 9 9 9 9 10 10 11 12 14 15 16 18 19 19 20 20 20 21 21 21 22 22 22 23 23 23 23 23 23 21 17 12 11 10 10
8 8 7 7 7 6 6 6 6 6 7 7 7 7 6 5 5 5 5 5 5 5 6 6 6 7 6 6 5 5 4 4 5 6 6 5 5 5 6 7 7 7 6 5 6 6 7 6 5 6 7 8 9 9 9 9 9 9 10 10 11 12 15 17 17 18 18 19 19 20 21 21 21 22 22 22 22 22 22 23 20 16 11 10 10 10
7 7 6 6 6 5 5 5 5 5 5 5 5 5 5 5 5 5 5 5 5 5 6 6 6 7 7 6 6 5 5 5 6 7 7 5 5 5 6 6 7 7 6 6 6 6 7 6 6 6 7 8 8 9 9 9 9 9 9 10 10 11 13 14 15 15 15 17 18 19 19 20 20 21 21 21 22 22 22 22 21 17 12 10 10 10
7 6 6 6 5 5 5 4 4 4 4 4 4 4 4 4 5 5 5 5 5 5 6 6 7 7 7 7 7 6 6 6 7 8 8 6 5 5 5 6 7 7 6 6 7 7 7 7 7 7 7 7 8 8 9 9 9 9 9 9 9 10 11 12 12 12 12 13 14 15 17 18 19 20 20 21 21 21 22 22 21 19 15 11 10 10
7 7 6 6 5 5 5 5 5 5 4 4 4 4 4 4 4 5 5 5 5 5 6 6 7 7 7 7 7 7 7 7 8 8 8 6 5 5 6 7 7 7 7 6 6 7 7 8 8 8 7 7 7 7 8 9 9 9 9 9 9 9 10 10 10 10 11 11 11 12 13 14 15 16 18 18 19 19 20 21 21 20 19 15 12 11
6 7 6 6 6 6 6 6 6 5 5 5 5 5 5 5 5 5 5 5 5 6 6 6 7 7 7 7 7 7 7 7 8 8 8 7 5 5 6 6 7 7 7 7 7 6 6 8 9 9 8 8 7 7 7 8 8 9 9 9 9 9 9 9 9 10 10 10 10 10 10 10 11 12 13 15 16 18 19 20 21 21 21 19 17 14
6 6 6 6 6 6 6 6 6 6 5 5 5 5 5 5 5 5 6 6 6 7 7 7 7 7 7 8 8 8 8 8 8 9 9 7 6 6 5 6 6 7 7 8 7 7 7 8 9 10 10 9 8 7 7 7 8 8 9 9 9 9 9 9 10 10 10 10 10 10 10 10 10 11 11 14 16 18 19 20 21 21 22 22 21 19
6 6 6 6 6 6 6 6 6 6 6 5 5 6 6 6 6 6 6 7 7 7 8 8 8 9 9 9 9 9 9 9 9 9 10 9 7 7 6 6 7 8 8 8 8 8 8 9 9 10 9 9 8 7 7 7 8 8 9 9 9 9 9 10 10 10 10 11 11 11 11 11 11 11 12 14 16 17 18 19 20 20 21 22 22 22
6 6 6 6 6 6 6 6 6 6 6 6 6 6 7 7 7 8 7 8 8 9 8 8 8 9 12 12 12 12 11 12 12 13 13 11 9 8 7 7 8 8 8 8 8 8 9 9 10 10 9 8 9 9 9 9 9 9 9 9 9 9 10 10 10 10 10 11 11 12 12 11 11 11 11 12 12 12 12 13 14 15 17 18 19 21
6 6 6 6 6 6 6 6 6 6 6 7 7 7 7 8 8 8 8 8 8 9 9 9 9 9 11 12 13 14 13 13 14 14 13 11 10 9 8 8 8 9 8 8 8 8 9 9 9 9 9 9 10 10 9 9 9 10 10 10 10 9 9 9 10 10 10 10 11 12 12 11 11 11 11 10 10 10 10 10 10 11 12 11 13 15
6 6 6 7 6 6 6 6 7 7 7 7 8 8 8 7 7 8 8 8 8 8 9 10 9 9 9 10 11 11 12 11 11 12 11 11 10 9 8 8 9 9 8 8 8 8 9 9 10 10 10 10 10 10 9 9 9 10 11 10 9 8 8 9 9 10 10 10 11 11 11 11 11 11 11 10 10 10 9 9 9 9 9 9 8 9
6 6 6 6 6 6 7 7 7 7 7 7 7 7 7 7 7 7 7 7 8 8 8 8 8 8 9 9 9 10 11 11 11 11 10 10 10 10 9 9 9 9 9 9 9 9 9 10 11 11 11 11 11 12 12 11 11 12 13 11 10 10 10 10 10 10 10 10 10 11 11 11 11 11 11 11 10 10 9 9 9 9 9 8 8 8
7 7 7 6 6 6 6 7 7 8 8 7 7 7 7 6 7 7 7 7 7 7 7 7 7 8 8 8 9 9 9 9 10 10 10 10 11 11 10 10 9 9 8 9 9 9 9 10 11 11 11 11 11 11 11 11 12 12 12 12 12 12 12 11 10 9 9 10 10 10 11 11 11 11 11 11 10 10 10 10 11 11 10 9 8 8
7 7 7 7 7 7 7 8 8 7 7 7 7 7 7 7 7 7 7 7 8 8 8 7 7 8 8 8 8 8 8 8 9 10 10 10 10 11 11 11 10 9 8 9 9 9 10 10 11 11 11 11 11 12 13 12 12 12 11 12 12 11 8 8 8 8 9 9 10 10 10 10 10 10 10 10 10 10 10 11 12 13 12 10 9 9
7 7 7 7 7 7 7 7 6 6 7 7 7 7 7 7 7 8 7 7 8 8 7 7 7 8 8 9 9 8 8 8 9 10 10 11 11 11 11 12 11 11 10 9 9 9 9 10 10 11 11 10 11 12 12 12 12 12 11 12 12 11 10 9 9 10 10 10 10 10 10 10 10 10 10 10 10 10 10 10 10 11 11 11 10 10
7 7 7 6 6 6 7 7 7 7 7 7 7 7 8 8 8 8 7 8 8 8 7 7 7 7 7 8 8 8 8 8 8 8 9 10 11 12 11 11 10 10 10 10 9 9 9 10 10 10 10 10 11 12 12 13 13 13 13 12 12 12 12 12 11 11 11 11 10 10 11 10 10 10 10 10 10 10 10 10 10 10 10 10 10 10
6 6 6 6 6 7 7 7 7 7 7 7 8 8 8 8 7 7 8 8 8 8 8 7 7 7 8 8 8 8 8 8 8 8 7 8 9 9 9 9 9 9 9 9 10 10 10 10 10 11 10 11 11 12 12 12 13 13 12 12 12 12 12 12 11 11 11 11 11 11 11 11 10 10 10 10 10 10 10 10 11 11 11 11 11 11
6 7 7 7 7 7 7 7 7 7 7 8 8 8 8 8 7 7 8 8 8 8 8 7 7 8 8 8 8 8 9 9 9 9 8 8 8 8 8 8 9 9 9 9 10 11 11 11 12 11 11 11 12 12 13 12 12 12 12 12 11 11 11 11 11 11 11 11 11 11 11 10 10 10 11 11 11 11 10 10 11 11 11 11 11 11
7 7 7 7 7 7 7 7 8 8 8 8 8 8 8 8 8 8 8 8 8 7 8 7 8 8 9 9 9 9 9 10 10 9 9 9 8 8 8 8 8 8 9 10 11 12 12 13 13 13 12 12 12 13 13 12 12 12 12 11 11 11 12 11 11 11 11 11 11 11 11 10 10 10 11 11 11 11 11 11 11 11 11 11 11 11
7 7 7 7 7 7 8 8 8 8 8 9 9 8 8 9 9 9 8 8 7 7 7 8 8 9 9 9 9 9 10 10 10 9 9 9 8 8 8 8 8 8 8 9 10 11 11 12 14 14 14 13 13 13 14 13 12 12 11 11 11 11 11 12 11 11 11 11 12 12 11 10 10 10 11 11 12 12 12 12 11 11 11 11 11 11
7 7 7 7 7 7 8 8 8 8 9 9 9 9 8 8 8 8 8 7 7 7 7 8 9 9 9 9 9 9 10 10 10 9 9 8 8 8 8 8 8 8 8 8 9 9 9 9 11 13 15 15 15 14 14 13 13 12 11 11 11 11 11 11 11 11 11 11 11 11 11 11 11 10 10 11 13 14 13 13 12 11 11 11 11 12
7 7 7 7 7 7 8 8 8 9 9 9 9 9 9 8 8 8 7 7 7 8 8 8 9 9 9 10 10 10 10 10 10 10 10 8 8 8 8 8 8 8 9 8 8 7 7 7 8 9 11 14 16 16 13 13 12 12 11 11 10 10 10 10 11 11 11 11 11 11 11 11 11 10 10 11 12 13 13 13 12 12 11 10 11 12
Wind_Direction
287 296 301 308 307 306 306 314 317 319 320 323 324 323 324 323 320 317 316 315 315 316 316 314 313 313 313 316 319 321 324 324 324 324 322 321 321 320 319 318 318 318 318 318 318 318 317 316 316 315 315 315 314 313 311 309 306 303 300 298 296 294 293 292 291 290 289 288 287 286 285 285 284 283 283 282 281 280 280 280 281 281 281 280 280 279
285 287 287 298 302 303 303 315 319 321 322 323 323 322 322 320 317 315 313 313 313 314 313 312 311 311 311 312 315 318 319 320 320 319 319 318 318 318 317 317 318 319 320 321 321 320 320 319 317 317 316 315 315 314 314 313 311 310 308 305 302 299 297 295 292 291 289 287 285 283 281 280 279 279 279 280 280 281 282 282 283 283 282 281 280 279
299 294 292 304 308 308 307 317 321 322 322 320 320 319 319 316 314 312 311 311 311 310 309 309 309 308 308 309 311 314 314 314 314 314 314 314 314 313 314 314 316 317 319 321 321 321 321 320 319 318 317 316 315 315 314 314 313 313 312 310 308 306 304 302 300 298 295 292 288 284 280 278 275 274 274 275 276 278 280 282 283 282 282 282 281 280
302 301 307 315 314 312 310 317 319 320 319 315 314 314 315 313 311 309 308 308 307 306 305 305 305 305 305 305 307 308 309 309 309 309 308 308 308 308 308 310 311 314 316 318 319 320 320 319 318 317 316 315 314 313 313 312 312 312 311 311 310 310 310 309 309 308 307 304 300 295 290 285 280 276 274 273 274 275 276 278 279 280 280 280 281 280
305 309 318 321 316 310 311 315 316 315 313 310 311 313 313 310 307 305 304 304 304 304 304 303 303 302 301 302 303 304 305 305 304 303 303 303 303 303 303 305 307 310 313 314 316 316 316 316 315 314 312 311 310 309 308 308 308 307 307 307 308 308 310 311 312 313 315 314 313 312 306 301 295 289 285 282 280 278 277 277 277 277 278 279 280 280
312 316 322 318 312 310 313 313 312 311 309 308 310 311 310 306 302 300 300 302 303 303 303 301 300 299 298 299 300 301 302 301 300 300 299 299 299 299 299 302 304 307 310 311 312 312 312 311 310 309 308 306 305 304 303 302 302 302 302 302 303 303 305 306 307 308 309 310 312 312 311 309 306 303 301 297 293 290 286 284 282 281 281 280 280 280
311 313 315 309 305 305 307 306 308 310 311 311 311 310 306 301 298 297 298 300 302 302 301 299 298 297 297 297 299 299 300 299 299 298 297 297 297 297 299 301 303 305 307 308 308 308 308 307 306 305 304 302 301 300 299 299 298 298 298 298 298 299 300 301 301 302 303 304 305 305 306 305 305 304 303 300 298 296 293 291 289 287 285 284 283 282
307 307 305 304 303 303 299 299 305 310 314 313 311 309 305 301 298 297 298 299 301 302 302 300 299 298 298 299 300 301 300 300 299 299 298 298 298 299 301 302 303 304 305 305 305 305 304 304 303 302 301 300 299 298 297 297 297 296 296 297 297 298 299 299 300 301 301 301 301 301 300 300 299 298 298 296 295 294 292 291 290 289 288 286 285 284
303 303 302 303 305 304 302 300 305 311 313 309 307 305 304 303 302 301 302 303 305 306 305 304 303 302 301 303 303 302 300 299 299 300 299 300 301 302 302 303 303 303 302 302 302 302 302 301 301 300 300 299 299 298 297 296 296 296 296 297 298 299 300 300 301 301 301 301 301 300 299 298 297 296 294 293 292 291 289 289 288 287 286 286 285 284
299 302 303 304 304 303 302 302 306 310 310 303 299 297 297 303 307 310 311 311 311 310 306 306 305 305 305 305 303 301 299 297 295 295 296 297 298 299 300 299 299 299 299 300 300 300 300 300 299 299 299 299 298 298 297 296 296 296 296 297 298 299 300 301 301 302 302 302 302 301 300 298 297 295 293 292 290 289 287 286 285 285 284 284 283 283
303 303 304 304 303 300 298 300 305 309 308 300 294 291 291 305 313 317 316 315 314 312 308 307 307 307 307 305 303 300 298 297 296 296 296 297 298 298 297 297 296 296 297 298 299 299 299 299 299 299 299 298 298 297 296 296 296 296 296 297 297 298 299 299 300 300 301 301 301 300 299 298 296 295 293 291 289 287 286 285 284 283 282 281 281 281
305 304 301 302 303 303 300 301 304 307 308 303 302 304 308 320 322 319 315 314 313 312 310 309 307 306 305 304 303 301 299 299 300 302 302 301 301 300 299 298 298 298 299 299 299 299 300 300 300 300 299 298 297 297 296 296 296 295 296 296 296 297 297 298 298 299 299 300 300 300 299 297 296 294 292 291 289 287 286 284 283 282 281 280 280 279
297 298 299 301 303 304 305 307 309 311 312 313 315 318 321 326 323 317 310 308 309 311 312 311 308 305 303 302 301 301 302 303 304 306 306 305 305 304 304 303 303 303 302 301 300 300 300 300 300 300 299 298 297 296 296 296 296 296 296 296 296 296 297 297 298 299 299 300 300 300 299 298 296 294 292 290 289 287 286 285 283 282 282 281 280 279
301 303 304 303 303 305 308 311 313 314 316 318 320 320 320 320 318 313 308 306 307 310 311 309 307 306 303 302 302 304 307 308 308 307 305 305 307 308 307 306 305 304 303 301 300 300 301 301 300 299 299 297 297 297 297 297 297 297 297 297 297 297 297 298 299 299 300 300 300 300 299 297 295 293 291 290 288 287 285 284 283 282 282 281 280 279
311 311 308 307 307 309 312 313 314 314 317 319 319 319 317 317 316 314 310 310 310 311 310 306 305 304 303 304 307 309 312 311 309 308 305 305 307 309 308 305 303 301 300 299 298 299 300 299 299 298 297 296 297 298 300 300 299 299 299 298 298 298 298 298 299 299 300 300 299 299 298 297 295 293 291 289 287 286 284 283 283 282 281 280 279 279
313 310 307 307 308 309 313 315 315 315 316 317 319 319 320 319 318 316 313 311 311 311 310 309 307 305 302 303 307 311 313 311 309 307 306 304 306 308 307 303 300 298 298 297 297 298 299 298 297 296 295 297 298 299 300 300 300 299 299 299 299 298 298 298 298 299 298 298 298 298 297 296 295 294 292 290 288 286 284 283 282 281 281 280 279 278
307 305 304 305 305 307 311 313 314 313 314 316 320 322 323 320 318 315 313 311 310 310 311 312 311 310 307 305 308 311 315 311 308 306 304 302 304 305 303 299 297 296 296 295 295 297 298 297 296 297 297 299 300 300 299 299 299 299 298 298 298 298 298 298 297 297 297 297 297 297 297 296 295 294 293 291 289 287 285 283 282 281 280 279 278 277
300 300 301 302 304 307 311 312 312 313 315 319 323 323 320 316 314 311 308 308 307 308 309 308 307 305 306 306 310 317 322 315 310 307 304 301 301 302 300 296 294 294 295 294 294 295 296 297 298 299 299 300 299 299 298 297 297 297 297 297 297 297 297 296 296 296 296 296 296 296 296 295 295 294 293 292 290 288 286 284 282 281 280 279 278 277
295 297 299 301 304 307 310 311 314 318 322 325 324 321 315 312 309 306 303 303 305 306 307 304 302 300 300 301 308 317 323 316 311 307 303 300 300 302 302 298 295 294 294 294 295 297 297 297 297 298 298 298 298 298 297 297 297 297 296 296 296 296 296 296 296 296 296 296 295 295 295 294 294 294 293 292 290 288 286 284 282 280 279 278 277 276
295 296 298 302 306 308 309 311 317 323 326 325 321 316 311 309 306 303 302 304 304 303 302 300 299 299 300 301 306 314 320 315 309 303 299 298 300 303 305 301 299 297 296 297 298 300 300 299 298 297 297 298 299 299 299 298 298 297 297 296 296 296 296 296 296 295 295 295 295 294 294 294 293 293 292 292 290 288 287 284 282 281 279 277 276 275
293 295 300 310 313 313 310 314 319 321 322 320 316 310 306 304 303 303 305 305 304 302 302 299 298 298 301 302 306 311 316 311 305 300 297 297 299 302 305 302 301 300 300 302 304 305 305 304 303 301 301 301 302 302 301 300 299 298 297 296 296 295 295 295 295 294 294 294 294 293 293 293 293 292 292 291 291 290 288 286 285 282 280 278 276 274
294 299 310 317 316 312 309 311 313 315 316 313 309 304 302 303 303 303 304 303 301 299 297 294 296 299 302 301 302 303 305 300 298 297 299 297 297 299 305 306 305 304 304 305 306 307 307 305 304 302 303 303 303 303 302 301 300 299 297 296 295 295 294 294 294 294 293 293 293 293 292 292 292 292 291 292 292 292 291 290 289 287 284 282 279 276
301 308 315 316 313 308 306 306 307 308 308 304 300 298 299 300 300 299 299 297 296 296 295 296 297 297 295 292 291 291 291 290 291 294 296 294 296 302 311 310 307 304 302 304 305 306 306 304 302 302 302 302 302 302 301 300 298 297 296 296 295 295 294 294 294 293 293 292 292 291 291 291 291 291 291 292 293 294 294 295 294 293 291 288 284 282
310 311 310 309 307 305 304 303 302 302 301 298 296 295 294 293 291 291 291 292 292 293 294 294 292 289 285 284 285 287 290 294 297 298 295 294 298 304 311 310 305 302 300 303 304 305 304 302 301 300 300 300 300 299 298 297 297 296 296 295 295 295 295 294 294 293 292 292 291 291 290 290 290 291 291 293 293 294 295 295 295 295 294 292 290 288
308 306 304 304 304 303 302 301 300 300 300 299 297 295 293 292 291 291 289 289 289 289 289 288 287 287 288 291 292 294 299 305 307 304 298 295 296 300 305 306 304 301 300 301 302 302 301 299 298 298 297 297 296 296 295 295 295 295 294 295 294 294 294 293 293 292 292 292 291 291 291 291 291 291 291 292 292 293 293 293 293 292 292 292 291 290
302 302 302 301 301 300 298 297 297 297 298 297 297 298 298 298 296 293 289 287 287 288 290 290 291 292 297 299 300 301 305 308 306 302 298 296 296 297 301 302 300 299 299 300 301 302 301 299 298 297 296 294 293 293 293 293 293 293 294 294 294 293 293 293 292 292 292 292 292 291 291 291 290 290 290 290 290 290 289 289 289 289 289 289 289 289
300 299 299 298 298 298 297 297 297 297 298 298 298 298 299 297 293 289 285 286 290 293 295 294 295 296 299 297 297 300 305 305 303 299 297 294 293 294 297 300 301 302 301 301 302 302 301 299 297 296 293 292 291 291 292 293 294 295 295 295 294 294 293 292 291 291 290 290 290 289 289 289 288 288 288 288 288 287 287 286 286 286 286 286 286 285
300 299 298 298 297 297 297 298 298 299 300 300 300 300 298 294 289 286 286 291 295 295 293 292 294 296 297 297 298 301 303 300 297 295 297 293 291 291 298 303 305 306 305 302 301 300 297 294 292 291 290 290 291 293 295 297 298 298 298 297 295 294 292 291 290 289 288 287 287 287 287 286 286 286 286 286 286 285 285 284 284 284 283 282 279 277
304 302 301 299 298 297 296 296 296 297 297 298 299 299 297 290 285 284 288 294 295 292 288 289 290 293 295 297 298 297 295 291 292 298 307 301 295 294 301 304 306 307 307 304 301 296 290 288 288 290 291 295 298 301 302 303 303 301 300 297 296 294 292 291 289 288 287 287 286 285 285 285 284 284 284 284 284 284 284 284 283 283 282 278 275 273
311 309 305 303 301 298 296 294 293 292 292 293 294 294 291 284 281 282 288 293 292 290 288 289 290 292 296 298 297 294 287 288 302 317 324 309 299 296 303 303 305 308 310 308 304 299 292 290 292 295 299 302 304 305 305 305 304 302 300 297 295 293 292 291 290 289 288 286 285 284 283 283 283 282 282 282 282 282 282 282 282 282 280 277 275 273
316 314 310 308 305 302 297 294 290 289 289 290 290 289 286 283 283 285 289 290 289 288 288 289 290 292 295 296 296 294 290 300 316 325 325 308 298 297 304 303 303 305 309 307 305 303 301 298 297 299 303 305 305 304 303 302 300 299 297 296 294 292 291 291 290 289 288 286 285 284 283 282 281 281 280 280 280 280 280 280 280 280 278 276 274 273
316 313 310 309 306 302 298 294 292 291 291 290 289 287 284 283 282 282 284 285 285 285 286 287 287 288 288 286 285 285 289 297 309 315 316 304 297 297 301 300 300 301 302 298 294 294 297 299 303 305 306 304 302 301 299 297 296 295 294 293 292 291 292 292 292 290 289 287 286 285 284 283 281 280 279 279 278 278 277 277 277 276 275 273 272 272
314 311 308 306 304 302 300 298 297 296 296 294 293 290 287 283 280 279 279 279 280 281 282 283 284 284 283 280 278 277 280 288 299 306 308 302 296 295 298 298 298 298 298 292 286 283 284 292 299 303 302 299 297 295 294 293 292 292 292 292 292 292 293 294 293 291 290 289 288 287 285 284 282 281 279 278 277 276 275 275 274 272 271 270 270 270
313 311 308 307 307 306 305 304 303 302 301 299 298 296 293 289 285 282 280 279 277 277 277 278 279 281 281 280 278 276 278 284 292 299 303 299 295 294 296 296 295 296 297 292 289 286 283 286 291 296 297 295 292 290 291 291 291 291 290 289 289 290 292 292 292 291 291 290 289 288 286 285 283 281 279 278 276 275 274 273 271 270 268 268 268 268
313 311 310 310 311 311 311 310 309 308 307 305 304 302 300 297 294 290 286 283 279 276 273 272 272 273 275 276 277 278 279 284 292 298 301 298 295 293 293 291 292 294 295 292 292 291 287 287 289 291 294 295 293 290 289 289 290 289 287 286 286 287 289 290 291 290 290 289 287 286 285 285 283 282 279 277 276 275 274 272 271 269 267 266 265 265
310 310 311 313 314 314 313 312 311 310 309 308 307 306 304 302 298 295 290 286 281 277 272 269 267 265 266 268 271 274 278 284 291 295 296 293 290 288 287 286 288 291 291 290 290 289 288 289 290 291 292 293 293 292 289 289 289 289 288 287 287 287 287 288 288 288 288 287 286 285 285 284 283 281 279 278 277 276 275 273 271 269 267 265 263 262
308 309 312 315 314 313 310 310 311 311 311 310 309 308 307 303 299 295 290 286 281 277 273 269 266 263 260 261 264 268 274 280 284 286 286 284 283 281 280 282 284 284 284 285 287 288 289 290 291 291 289 288 289 293 296 296 294 291 289 289 288 288 288 288 288 287 286 284 284 283 283 282 281 281 280 279 278 277 275 273 271 269 267 266 264 262
310 311 313 313 312 310 309 310 311 311 312 312 311 309 307 302 298 295 291 285 281 277 275 272 269 267 265 265 266 267 270 273 275 276 277 276 275 274 273 276 277 277 276 278 281 285 287 288 290 291 289 287 287 288 293 296 296 294 291 291 289 288 287 286 284 282 281 281 281 281 282 282 282 282 282 282 281 280 278 275 273 271 269 268 265 263
311 311 310 310 309 309 309 310 311 312 313 311 308 306 303 299 296 293 289 286 283 280 279 278 277 275 272 271 270 269 269 268 268 268 268 265 264 263 265 269 272 273 273 273 274 277 279 281 283 286 289 290 290 290 290 291 292 293 294 292 288 284 281 282 282 281 281 282 283 284 284 283 283 283 283 282 282 281 280 279 277 275 273 272 269 266
311 309 308 307 307 308 308 309 310 310 309 306 303 301 299 297 295 293 290 288 287 285 284 283 281 279 278 276 274 273 271 269 266 264 261 257 254 254 258 263 267 271 272 271 270 270 272 275 277 280 282 285 288 290 291 288 288 290 292 291 288 285 284 286 286 286 285 284 283 283 283 282 281 280 280 280 279 279 278 278 277 276 273 272 271 270
309 307 306 306 307 307 307 307 306 305 303 301 300 299 298 298 297 296 294 292 291 289 289 287 285 283 282 281 280 280 278 275 272 267 262 255 251 250 253 257 262 267 270 270 269 268 268 271 275 277 279 280 283 285 285 284 285 287 289 287 287 288 290 288 286 283 281 278 276 276 277 279 279 278 278 278 277 276 275 275 275 275 273 269 267 267
307 305 306 307 307 307 306 304 302 300 299 298 297 297 297 297 296 295 295 295 294 294 294 294 293 293 291 289 286 283 280 278 274 269 263 254 248 247 249 253 257 262 266 268 268 267 266 268 271 274 276 279 282 283 284 283 284 284 284 284 287 289 288 283 278 276 276 277 277 278 279 279 279 279 278 278 277 276 274 273 273 272 271 268 265 262
306 304 303 303 302 301 301 300 299 299 298 296 295 294 294 293 292 292 292 293 294 295 296 297 297 297 295 293 291 288 284 281 278 276 273 265 258 253 252 254 257 259 262 265 267 268 267 267 268 269 273 276 278 279 282 284 284 283 280 281 285 288 287 284 283 283 282 281 281 280 279 278 278 278 278 277 277 277 276 274 272 271 268 267 264 262
301 300 300 300 299 299 299 299 300 299 299 296 294 293 293 292 291 290 289 290 291 293 295 296 296 294 292 293 293 294 293 290 287 284 282 278 272 266 263 261 260 259 258 261 265 269 272 270 269 269 271 273 274 276 278 281 282 282 280 280 279 279 278 282 286 287 283 279 276 274 274 275 277 278 277 276 275 274 273 271 269 267 265 264 262 260
296 298 299 300 302 302 302 301 300 299 297 295 293 293 292 293 292 290 288 288 290 291 292 294 295 294 292 293 296 297 298 296 293 289 284 280 276 273 269 266 264 261 258 257 259 262 268 271 272 273 274 273 272 272 275 278 280 280 279 278 276 274 272 275 278 280 278 277 276 275 274 274 275 275 274 273 271 269 268 267 266 265 263 260 258 257
295 297 299 301 302 302 301 300 299 297 295 293 292 291 292 292 291 288 286 286 287 288 289 291 291 290 290 293 296 297 297 296 295 293 290 286 282 278 273 269 266 263 261 259 258 258 259 264 269 273 277 274 272 269 268 272 275 277 278 277 276 275 275 274 274 275 275 276 276 275 274 274 273 272 271 271 269 268 265 263 262 261 260 258 256 255
296 298 299 300 300 300 299 298 297 296 294 293 292 292 292 291 290 288 285 285 285 286 288 288 286 284 285 288 291 293 295 295 295 294 293 291 288 284 279 274 269 266 264 262 260 259 257 258 260 264 269 272 273 272 270 270 270 272 275 276 277 276 275 274 274 273 273 273 274 274 276 274 272 270 269 270 270 268 265 262 260 258 257 256 255 253
298 298 299 299 299 298 298 298 297 296 294 293 292 292 292 292 291 290 288 288 288 288 289 287 285 283 283 284 286 289 290 291 292 292 292 291 290 287 284 281 276 272 268 265 263 262 260 257 256 255 257 262 267 271 273 271 270 270 272 274 275 275 274 274 274 273 272 271 270 271 272 270 269 269 271 272 271 268 266 263 260 257 255 254 253 253
297 296 297 297 297 297 297 297 295 294 293 292 292 293 293 292 292 291 291 291 290 289 287 286 285 284 284 284 285 286 287 286 287 287 288 288 289 288 287 285 283 280 277 272 269 266 264 259 254 249 247 249 255 263 269 270 270 269 270 270 271 271 272 273 273 272 271 270 269 267 265 263 262 263 267 269 270 269 268 265 261 258 254 253 252 252
295 295 295 295 294 294 293 293 293 292 292 292 293 294 295 294 294 292 290 289 287 286 283 283 283 283 283 284 284 285 285 285 284 284 284 286 287 288 288 288 288 287 285 281 277 274 272 267 258 249 242 240 243 250 260 265 267 268 267 266 266 266 268 270 271 271 270 270 269 266 262 260 258 257 259 263 266 268 268 266 263 259 255 253 251 250
296 296 295 294 292 291 291 291 291 291 291 292 293 294 294 294 293 291 289 287 285 284 282 282 281 281 281 283 283 283 283 283 282 282 283 285 286 287 287 288 289 289 288 287 286 284 282 281 275 265 251 241 238 239 247 256 262 266 267 265 264 264 266 268 270 271 270 270 269 268 264 261 258 256 255 258 263 266 268 266 264 261 257 254 252 251